Location: Unspecified
(0.0000°N, 0.0000°E)
Time: 08:28:36
(UTC+00:00)

N. Korean satellite - Pass Details

Date: 21 February 2018
Orbit: 459 x 514 km, 97.2° (Epoch: 23 February)

Event Time Altitude Azimuth Distance (km) Brightness Sun altitude
Rises 05:30:33 0° 41° (NE) 2,601 10.7 -10.6°
Reaches altitude 10° 05:33:19 10° 64° (ENE) 1,726 10.2 -9.9°
Maximum altitude 05:35:33 15° 101° (ESE) 1,425 10.4 -9.4°
Drops below altitude 10° 05:37:48 10° 138° (SE) 1,736 10.2 -8.8°
Sets 05:40:35 0° 161° (SSE) 2,626 10.7 -8.1°
